Find FORMOSAT 5

NORAD ID: 42920 Int'l Des: 2017-049 Owner: NSPO Country: TW operational
LEOCIRCULARRETROGRADESSO

Current View

Loading 3D Globe...

About FORMOSAT 5

Description loading...

Upcoming Passes

Passes for default location (London). Set your location on the main map for personalized predictions.

Altitude History

Loading altitude history...

Two-Line Element Set

1 42920U 17049A 26151.50165884 .00000268 00000-0 78876-4 0 9996
2 42920 98.2254 227.1817 0012439 130.6062 229.6217 14.50891820464252
Epoch: May 31, 2026 • Age: 10 hours

Current Status

Altitude 728.0 km
Velocity 7.49 km/s
Sub-Earth Point 34.05°N, 0.68°E
Launch Date Aug 24, 2017
Age 8.7 years
Type other

Technical Details

Classification Payload
Mass 525.00 kg
Dry Mass 445.00 kg
Total Mass 525.00 kg
Length 3.00 m
Diameter 1.20 m
Span 4.50 m
Shape Oct cyl+2 pan
Manufacturer NSPO
Phase Status In Orbit
Owner/State NSPO/TW

Most Searched